GW1454 Weather Reports


Display with metric or nautical units.
time (UTC)temp
F
wind
direction
speed
MPH
gust
MPH
rain 1hr
in
rain 24hr
in
rain mn
in
humidity
%
barometer
mb
20260507174047 61 82 1.0 7.0 0.00 0.43 0.33 91 1009.8
20260507173547 61 251 1.0 4.0 0.00 0.43 0.33 91 1009.8
20260507173054 61 146 1.0 6.0 0.00 0.43 0.33 91 1009.9
20260507172547 62 125 1.0 6.0 0.00 0.43 0.33 91 1010.0
20260507172047 62 134 1.0 6.0 0.00 0.43 0.33 91 1010.0
20260507171553 62 143 1.0 3.0 0.00 0.43 0.33 91 1009.9
20260507171047 63 163 0.0 3.0 0.00 0.43 0.33 91 1009.9
20260507170550 63 110 0.0 2.0 0.00 0.43 0.33 91 1009.8
20260507170052 63 142 0.0 4.0 0.00 0.43 0.33 90 1009.9
20260507165548 64 130 0.0 7.0 0.00 0.43 0.33 90 1010.0
20260507165047 64 0 1.0 7.0 0.00 0.43 0.33 90 1009.9
20260507164600 65 117 0.0 8.0 0.00 0.43 0.33 88 1009.9
20260507164048 65 150 0.0 8.0 0.00 0.43 0.33 88 1009.4
20260507163545 67 171 0.0 8.0 0.00 0.43 0.33 90 1009.2
20260507163101 67 120 2.0 6.0 0.00 0.43 0.33 90 1009.1
20260507162548 67 176 1.0 2.0 0.00 0.43 0.33 92 1009.1
20260507162049 67 88 0.0 2.0 0.00 0.43 0.33 93 1009.0
20260507161550 66 185 0.0 3.0 0.00 0.43 0.33 95 1009.1
20260507161045 65 167 0.0 3.0 0.00 0.43 0.33 94 1009.2
20260507160548 65 130 0.0 1.0 0.00 0.43 0.33 94 1009.5
20260507160057 65 0 0.0 0.0 0.00 0.43 0.33 94 1009.4
20260507155546 65 0 0.0 0.0 0.00 0.43 0.33 95 1009.6
20260507155044 64 0 0.0 0.0 0.00 0.43 0.33 95 1009.6
20260507154559 64 0 0.0 0.0 0.00 0.43 0.33 94 1010.0
20260507154048 64 0 0.0 0.0 0.00 0.43 0.33 94 1010.0
20260507153545 64 0 0.0 1.0 0.01 0.43 0.33 95 1009.9
20260507153051 64 0 0.0 1.0 0.01 0.43 0.33 94 1010.1
20260507152547 64 132 0.0 1.0 0.01 0.43 0.33 94 1010.3
20260507152047 64 0 0.0 0.0 0.01 0.43 0.33 95 1010.2
20260507151553 64 0 0.0 1.0 0.01 0.43 0.33 95 1010.2
20260507151046 64 0 0.0 1.0 0.01 0.43 0.33 95 1010.2
20260507150547 64 0 0.0 2.0 0.02 0.43 0.33 95 1010.5
20260507150100 64 0 0.0 2.0 0.02 0.43 0.33 95 1010.7
20260507145546 64 96 0.0 2.0 0.02 0.43 0.33 95 1010.8
20260507145045 64 0 0.0 2.0 0.02 0.43 0.33 95 1010.7
20260507144554 64 111 0.0 1.0 0.03 0.43 0.33 95 1010.1
20260507144046 64 0 0.0 1.0 0.03 0.43 0.33 95 1009.8
20260507143544 63 0 0.0 1.0 0.02 0.42 0.32 95 1009.7
20260507143101 63 0 0.0 1.0 0.03 0.42 0.32 95 1009.8
20260507142547 63 0 0.0 1.0 0.04 0.42 0.32 95 1010.0
20260507142047 63 0 0.0 2.0 0.06 0.42 0.32 95 1010.0
20260507141555 63 0 0.0 2.0 0.06 0.42 0.32 95 1010.0
20260507141047 63 0 0.0 0.0 0.07 0.42 0.32 95 1010.1
20260507140547 63 0 0.0 1.0 0.07 0.41 0.31 95 1010.0
20260507140053 63 0 0.0 2.0 0.08 0.41 0.31 95 1010.2
20260507135548 63 0 0.0 2.0 0.10 0.41 0.31 96 1010.2
20260507135048 63 0 0.0 0.0 0.13 0.41 0.31 96 1010.1
20260507134559 63 0 0.0 0.0 0.14 0.40 0.30 95 1009.7
20260507134049 63 0 0.0 0.0 0.16 0.40 0.30 95 1009.3
20260507133547 63 0 0.0 0.0 0.17 0.40 0.30 95 1009.3
20260507133103 63 0 0.0 0.0 0.17 0.39 0.29 95 1009.4
20260507132546 63 0 0.0 0.0 0.15 0.37 0.27 95 1009.5
20260507132047 62 0 0.0 0.0 0.14 0.36 0.26 95 1009.8
20260507131612 62 0 0.0 0.0 0.14 0.36 0.26 95 1009.9
20260507131048 62 0 0.0 0.0 0.14 0.35 0.25 95 1010.1
20260507130548 62 0 0.0 0.0 0.13 0.34 0.24 95 1010.4
20260507130056 62 0 0.0 0.0 0.12 0.33 0.23 95 1010.7
20260507125547 62 0 0.0 0.0 0.11 0.31 0.21 95 1011.0
20260507125047 63 0 0.0 1.0 0.08 0.28 0.18 95 1011.0
20260507124551 63 0 0.0 1.0 0.06 0.26 0.16 95 1011.1
20260507124047 63 0 0.0 1.0 0.05 0.24 0.14 95 1011.4
20260507123544 63 0 0.0 0.0 0.04 0.23 0.13 95 1011.6
20260507123059 63 0 0.0 0.0 0.03 0.22 0.12 95 1011.6
20260507122545 63 0 0.0 0.0 0.03 0.22 0.12 95 1011.2
20260507122047 63 0 0.0 0.0 0.03 0.22 0.12 95 1011.0
20260507121553 63 0 0.0 0.0 0.03 0.22 0.12 95 1010.9
20260507121048 63 0 0.0 0.0 0.02 0.21 0.11 95 1010.8
20260507120547 63 0 0.0 2.0 0.02 0.21 0.11 95 1011.0
20260507120054 63 0 0.0 2.0 0.02 0.21 0.11 95 1011.0
20260507115548 63 151 0.0 1.0 0.01 0.20 0.10 95 1011.1
20260507115046 63 132 0.0 1.0 0.01 0.20 0.10 95 1010.9
20260507114549 63 130 0.0 1.0 0.01 0.20 0.10 95 1010.9
20260507114047 63 0 0.0 0.0 0.00 0.19 0.09 95 1010.8
20260507113547 63 0 0.0 0.0 0.00 0.19 0.09 95 1010.8
20260507113056 63 0 0.0 0.0 0.00 0.19 0.09 95 1010.4
20260507112549 63 0 0.0 0.0 0.00 0.19 0.09 95 1010.4
20260507112047 63 0 0.0 0.0 0.00 0.19 0.09 95 1010.8
20260507111550 63 0 0.0 0.0 0.00 0.19 0.09 95 1010.5
20260507111048 63 0 0.0 0.0 0.00 0.19 0.09 95 1010.2
20260507110547 63 0 0.0 0.0 0.00 0.19 0.09 95 1010.1
20260507110049 63 0 0.0 0.0 0.00 0.19 0.09 95 1010.1
20260507105544 63 0 0.0 0.0 0.01 0.19 0.09 95 1010.1
20260507105048 63 0 0.0 0.0 0.01 0.19 0.09 95 1010.2
20260507104550 63 0 0.0 0.0 0.01 0.19 0.09 95 1010.3
20260507104047 63 0 0.0 0.0 0.01 0.19 0.09 95 1010.4
20260507103546 63 0 0.0 0.0 0.01 0.19 0.09 95 1010.3
20260507103049 63 0 0.0 0.0 0.01 0.19 0.09 95 1010.3
20260507102548 63 0 0.0 0.0 0.01 0.19 0.09 95 1010.1
20260507102051 63 0 0.0 0.0 0.01 0.19 0.09 95 1010.2
20260507101556 63 0 0.0 0.0 0.01 0.19 0.09 95 1010.2
20260507101045 63 0 0.0 0.0 0.01 0.19 0.09 95 1010.1
20260507100546 63 0 0.0 0.0 0.01 0.19 0.09 95 1010.2
20260507100053 63 0 0.0 0.0 0.01 0.19 0.09 95 1010.3
20260507095546 63 0 0.0 0.0 0.00 0.18 0.08 95 1010.4
20260507095046 63 0 0.0 0.0 0.00 0.18 0.08 95 1010.4
20260507094557 63 0 0.0 0.0 0.00 0.18 0.08 95 1010.2
20260507094045 63 0 0.0 0.0 0.00 0.18 0.08 95 1010.4
20260507093545 63 0 0.0 0.0 0.00 0.18 0.08 95 1010.8
20260507093058 63 0 0.0 0.0 0.00 0.18 0.08 95 1010.7
20260507092550 63 0 0.0 0.0 0.00 0.18 0.08 95 1010.4
20260507092049 62 0 0.0 0.0 0.00 0.18 0.08 95 1010.3
20260507091557 63 0 0.0 0.0 0.00 0.18 0.08 95 1010.2
20260507091047 62 0 0.0 0.0 0.00 0.18 0.08 95 1010.3
20260507090546 62 0 0.0 0.0 0.00 0.18 0.08 95 1010.7
20260507090050 62 0 0.0 0.0 0.00 0.18 0.08 95 1010.9
20260507085546 62 0 0.0 0.0 0.00 0.18 0.08 95 1010.1
20260507085048 62 0 0.0 1.0 0.01 0.18 0.08 95 1010.2
20260507084552 63 0 0.0 2.0 0.01 0.18 0.08 95 1009.8
20260507084045 62 0 0.0 2.0 0.01 0.18 0.08 95 1009.8
20260507083546 63 330 0.0 2.0 0.01 0.18 0.08 95 1009.4
20260507083054 62 0 0.0 2.0 0.01 0.18 0.08 95 1009.7
20260507082545 62 0 0.0 2.0 0.02 0.18 0.08 95 1010.1
20260507082045 62 0 0.0 3.0 0.02 0.18 0.08 95 1010.2
20260507081555 62 109 0.0 3.0 0.02 0.18 0.08 95 1010.3
20260507081046 62 0 0.0 0.0 0.02 0.18 0.08 94 1010.1
20260507080546 62 0 0.0 3.0 0.02 0.18 0.08 94 1010.2
20260507080108 62 0 0.0 3.0 0.02 0.18 0.08 94 1010.3
20260507075544 62 90 0.0 2.0 0.01 0.17 0.07 94 1010.4
20260507075044 62 334 0.0 3.0 0.01 0.17 0.07 94 1010.3
20260507074556 62 51 0.0 3.0 0.01 0.17 0.07 94 1010.4
20260507074046 62 0 0.0 3.0 0.01 0.17 0.07 94 1010.7
20260507073549 62 0 0.0 3.0 0.01 0.17 0.07 94 1010.8
20260507073052 62 86 0.0 4.0 0.01 0.17 0.07 94 1011.1
20260507072547 62 0 1.0 6.0 0.00 0.16 0.06 94 1011.2
20260507072049 62 67 1.0 6.0 0.00 0.16 0.06 94 1011.5
20260507071607 62 0 0.0 3.0 0.00 0.16 0.06 94 1011.3
20260507071046 62 0 0.0 3.0 0.00 0.16 0.06 94 1011.3
20260507070547 62 0 0.0 1.0 0.00 0.16 0.06 94 1011.0
20260507070056 62 0 0.0 2.0 0.00 0.16 0.06 94 1011.3
20260507065548 62 0 0.0 3.0 0.00 0.16 0.06 94 1011.2
20260507065044 62 81 0.0 3.0 0.00 0.16 0.06 94 1011.2
20260507064550 62 0 0.0 0.0 0.01 0.16 0.06 94 1011.3
20260507064047 62 0 0.0 0.0 0.01 0.16 0.06 94 1011.4
20260507063548 62 0 0.0 0.0 0.01 0.16 0.06 94 1011.4
20260507063055 62 0 0.0 0.0 0.01 0.16 0.06 94 1011.3
20260507062549 62 0 0.0 0.0 0.02 0.16 0.06 94 1011.5
20260507062044 62 0 0.0 0.0 0.04 0.16 0.06 94 1011.5
20260507061556 62 0 0.0 0.0 0.04 0.16 0.06 94 1011.5
20260507061131 62 0 0.0 1.0 0.05 0.16 0.06 94 1011.5
20260507060547 62 0 0.0 1.0 0.06 0.16 0.06 94 1011.6
20260507060056 62 0 0.0 1.0 0.06 0.16 0.06 94 1012.1
20260507055548 62 0 0.0 0.0 0.06 0.16 0.06 94 1012.6
20260507055047 62 0 0.0 0.0 0.06 0.16 0.06 94 1012.9
20260507054552 62 0 0.0 0.0 0.05 0.15 0.05 94 1012.9
20260507054048 62 0 0.0 2.0 0.05 0.15 0.05 93 1012.5
20260507053547 62 0 0.0 2.0 0.05 0.15 0.05 93 1012.7
20260507053115 62 172 0.0 1.0 0.05 0.15 0.05 93 1012.7
20260507052548 62 0 0.0 1.0 0.04 0.14 0.04 93 1012.4
20260507052048 62 0 0.0 1.0 0.02 0.12 0.02 93 1012.1
20260507051559 62 0 0.0 2.0 0.02 0.12 0.02 93 1013.2
20260507051049 62 119 0.0 2.0 0.01 0.11 0.01 93 1013.3
20260507050547 62 155 0.0 2.0 0.00 0.10 0.00 93 1013.2
20260507050055 62 128 0.0 3.0 0.00 0.10 0.00 93 1012.8
20260507045548 62 0 0.0 3.0 0.00 0.10 0.00 93 1012.8
20260507045047 62 76 0.0 3.0 0.01 0.10 0.00 93 1012.8
20260507044558 62 0 0.0 0.0 0.01 0.10 0.00 93 1012.7
20260507044047 62 0 0.0 0.0 0.01 0.10 0.00 93 1012.6
20260507043544 62 0 0.0 0.0 0.01 0.10 0.00 92 1012.7
20260507043053 63 0 0.0 0.0 0.02 0.10 0.00 92 1012.7
20260507042548 63 0 0.0 0.0 0.02 0.10 0.00 92 1012.8
20260507042047 63 0 0.0 0.0 0.02 0.10 0.00 92 1012.7
20260507041549 63 0 0.0 0.0 0.03 0.10 0.00 92 1012.3
20260507041051 63 0 0.0 1.0 0.03 0.10 0.00 92 1012.2
20260507040548 63 0 0.0 3.0 0.04 0.10 0.00 92 1012.0
20260507040051 63 0 0.0 4.0 0.06 0.10 0.00 91 1011.5
20260507035548 63 67 1.0 4.0 0.07 0.10 0.10 91 1012.0
20260507035047 63 0 0.0 3.0 0.06 0.09 0.09 91 1012.4
20260507034555 63 89 0.0 6.0 0.06 0.09 0.09 91 1012.4
20260507034048 64 0 1.0 6.0 0.06 0.09 0.09 91 1012.0
20260507033547 64 89 1.0 6.0 0.06 0.09 0.09 91 1012.6
20260507033057 64 277 1.0 10.0 0.05 0.08 0.08 90 1011.8
20260507032547 64 84 2.0 10.0 0.06 0.08 0.08 90 1013.4
20260507032048 64 65 4.0 10.0 0.06 0.08 0.08 89 1013.8
20260507031556 65 67 4.0 10.0 0.05 0.07 0.07 89 1014.0
20260507031048 65 77 2.0 11.0 0.05 0.07 0.07 89 1013.8
20260507030548 65 32 3.0 11.0 0.04 0.06 0.06 89 1013.7
20260507030053 65 70 4.0 11.0 0.02 0.04 0.04 88 1013.5
20260507025548 65 71 3.0 9.0 0.01 0.03 0.03 89 1013.6
20260507025051 66 88 2.0 9.0 0.01 0.03 0.03 89 1013.5
20260507024601 66 74 3.0 9.0 0.01 0.03 0.03 89 1013.3
20260507024044 66 71 2.0 7.0 0.02 0.03 0.03 89 1013.2
20260507023544 66 42 2.0 7.0 0.02 0.03 0.03 89 1013.1
20260507023051 66 298 2.0 11.0 0.02 0.03 0.03 89 1013.1
20260507022547 66 77 4.0 11.0 0.01 0.02 0.02 90 1013.2
20260507022048 66 128 2.0 7.0 0.01 0.02 0.02 90 1013.1
20260507021550 66 76 1.0 7.0 0.02 0.02 0.02 90 1013.0
20260507021047 66 330 1.0 4.0 0.02 0.02 0.02 90 1012.9
20260507020548 66 79 1.0 4.0 0.02 0.02 0.02 90 1012.9
20260507020049 66 98 0.0 4.0 0.02 0.02 0.02 90 1012.8
20260507015545 66 0 1.0 4.0 0.02 0.02 0.02 90 1012.6
20260507015047 66 0 1.0 3.0 0.02 0.02 0.02 90 1012.5
20260507014602 66 0 0.0 0.0 0.01 0.01 0.01 90 1012.0
20260507014048 66 0 0.0 2.0 0.01 0.01 0.01 89 1011.8
20260507013551 66 0 0.0 2.0 0.01 0.01 0.01 89 1011.7
20260507013053 66 65 0.0 2.0 0.01 0.01 0.01 89 1011.8
20260507012550 66 68 0.0 2.0 0.01 0.01 0.01 89 1011.9
20260507012048 66 0 0.0 1.0 0.01 0.01 0.01 89 1012.0
20260507011551 66 0 0.0 1.0 0.00 0.00 0.00 88 1012.1
20260507011046 66 0 0.0 1.0 0.00 0.00 0.00 88 1012.3
20260507010544 66 0 0.0 1.0 0.00 0.00 0.00 88 1012.3
20260507005547 66 0 0.0 1.0 0.00 0.00 0.00 87 1012.6
20260507005048 66 0 0.0 3.0 0.00 0.00 0.00 87 1012.5
20260507004605 67 0 1.0 3.0 0.00 0.00 0.00 87 1012.6
20260507004048 67 0 0.0 1.0 0.00 0.00 0.00 86 1012.0
20260507003544 67 98 0.0 1.0 0.00 0.00 0.00 85 1012.0
20260507003055 68 0 0.0 0.0 0.00 0.00 0.00 85 1012.2
20260507002547 68 0 0.0 0.0 0.00 0.00 0.00 84 1012.3
20260507002047 68 0 0.0 2.0 0.00 0.00 0.00 83 1012.0
20260507001555 69 0 0.0 3.0 0.00 0.00 0.00 82 1012.2
20260507001045 69 94 1.0 3.0 0.00 0.00 0.00 81 1012.3
20260507000546 69 94 1.0 3.0 0.00 0.00 0.00 80 1012.0
20260507000054 69 0 0.0 3.0 0.00 0.00 0.00 80 1011.7
20260506235548 69 153 0.0 3.0 0.00 0.00 0.00 80 1012.0
20260506235047 70 110 0.0 3.0 0.00 0.00 0.00 79 1012.0
20260506234554 70 0 0.0 4.0 0.00 0.00 0.00 79 1012.1
20260506234045 70 107 0.0 4.0 0.00 0.00 0.00 79 1012.1
20260506233547 70 83 1.0 4.0 0.00 0.00 0.00 78 1012.1
20260506233058 70 88 1.0 4.0 0.00 0.00 0.00 78 1011.9
20260506232545 70 84 0.0 3.0 0.00 0.00 0.00 78 1012.0
20260506232048 70 0 1.0 5.0 0.00 0.00 0.00 78 1011.9
20260506231558 70 0 0.0 6.0 0.00 0.00 0.00 78 1012.0
20260506231052 70 49 1.0 9.0 0.00 0.00 0.00 78 1012.0
20260506230543 70 0 0.0 9.0 0.00 0.00 0.00 77 1012.1
20260506230107 70 59 3.0 7.0 0.00 0.00 0.00 77 1012.3
20260506225548 71 97 0.0 7.0 0.00 0.00 0.00 77 1012.4
20260506225047 71 320 3.0 8.0 0.00 0.00 0.00 77 1012.5
20260506224600 71 78 2.0 11.0 0.00 0.00 0.00 77 1012.6
20260506224044 71 103 3.0 11.0 0.00 0.00 0.00 76 1012.5
20260506223552 71 115 2.0 7.0 0.00 0.00 0.00 77 1012.6
20260506223105 71 122 0.0 7.0 0.00 0.00 0.00 76 1012.5
20260506222548 71 61 2.0 11.0 0.00 0.00 0.00 76 1012.6
20260506222047 71 68 4.0 11.0 0.00 0.00 0.00 76 1012.5
20260506221557 71 37 4.0 10.0 0.00 0.00 0.00 76 1012.6
20260506221045 71 68 3.0 10.0 0.00 0.00 0.00 76 1012.8
20260506220546 71 84 2.0 10.0 0.00 0.00 0.00 76 1012.6
20260506220052 71 95 4.0 9.0 0.00 0.00 0.00 75 1012.6
20260506215551 71 63 4.0 12.0 0.00 0.00 0.00 75 1012.5
20260506215048 71 69 3.0 12.0 0.00 0.00 0.00 75 1012.4
20260506214605 71 144 4.0 12.0 0.00 0.00 0.00 75 1012.6
20260506214046 71 61 4.0 13.0 0.00 0.00 0.00 75 1012.3
20260506213547 71 70 5.0 13.0 0.00 0.00 0.00 75 1012.1
20260506213058 71 261 4.0 12.0 0.00 0.00 0.00 74 1012.2
20260506212546 71 338 3.0 12.0 0.00 0.00 0.00 74 1011.8
20260506212049 71 77 3.0 12.0 0.00 0.00 0.00 74 1011.6
20260506211606 72 43 2.0 12.0 0.00 0.00 0.00 74 1011.7
20260506211046 72 103 2.0 10.0 0.00 0.00 0.00 73 1011.8
20260506210545 72 71 3.0 11.0 0.00 0.00 0.00 75 1012.0
20260506210057 72 86 5.0 11.0 0.00 0.00 0.00 74 1012.1
20260506205547 72 96 3.0 10.0 0.00 0.00 0.00 74 1012.2
20260506205047 72 103 3.0 10.0 0.00 0.00 0.00 74 1012.3
20260506204552 72 77 3.0 14.0 0.00 0.00 0.00 74 1012.3
20260506204046 72 140 4.0 14.0 0.00 0.00 0.00 74 1012.3
20260506203548 72 66 4.0 11.0 0.00 0.00 0.00 74 1012.7
20260506203054 71 271 4.0 10.0 0.00 0.00 0.00 75 1012.5
20260506202547 71 69 4.0 10.0 0.00 0.00 0.00 75 1012.6
20260506202047 71 118 4.0 13.0 0.00 0.00 0.00 75 1012.4
20260506201553 71 41 5.0 13.0 0.00 0.00 0.00 76 1012.6
20260506201044 71 92 3.0 13.0 0.00 0.00 0.00 76 1012.7
20260506200550 70 93 5.0 10.0 0.00 0.00 0.00 76 1012.6
20260506195548 70 22 5.0 10.0 0.00 0.00 0.00 77 1012.4
20260506195051 70 63 4.0 9.0 0.00 0.00 0.00 76 1012.5
20260506194605 70 101 3.0 11.0 0.00 0.00 0.00 77 1012.6
20260506194044 70 21 4.0 12.0 0.00 0.00 0.00 77 1012.5
20260506193549 69 202 6.0 18.0 0.00 0.00 0.00 77 1012.5
20260506193056 69 88 6.0 18.0 0.00 0.00 0.00 77 1012.5
20260506192548 69 78 4.0 11.0 0.00 0.00 0.00 78 1012.5
20260506192049 69 217 3.0 11.0 0.00 0.00 0.00 78 1012.5
20260506191604 68 263 4.0 11.0 0.00 0.00 0.00 79 1012.4
20260506191045 68 215 3.0 13.0 0.00 0.00 0.00 79 1012.5
20260506190548 68 205 5.0 13.0 0.00 0.00 0.00 79 1012.9
20260506190055 68 119 4.0 13.0 0.00 0.00 0.00 78 1012.9
20260506185548 68 139 3.0 10.0 0.00 0.00 0.00 79 1013.2
20260506185047 68 81 5.0 11.0 0.00 0.00 0.00 78 1013.1
20260506184555 68 51 4.0 11.0 0.00 0.00 0.00 78 1013.1
20260506184048 68 35 4.0 11.0 0.00 0.00 0.00 78 1012.9
20260506183545 68 103 2.0 9.0 0.00 0.00 0.00 79 1012.6
20260506183053 67 331 2.0 8.0 0.00 0.00 0.00 79 1012.5
20260506182544 67 94 2.0 8.0 0.00 0.00 0.00 79 1012.4
20260506182048 67 186 2.0 8.0 0.00 0.00 0.00 80 1012.8
20260506181559 67 48 2.0 6.0 0.00 0.00 0.00 80 1013.1
20260506181045 66 33 1.0 8.0 0.00 0.00 0.00 82 1013.4
20260506180547 66 100 1.0 10.0 0.00 0.00 0.00 81 1013.8
20260506180115 66 82 2.0 14.0 0.00 0.00 0.00 80 1014.0
20260506175546 66 90 2.0 14.0 0.00 0.00 0.00 79 1014.0
20260506175046 67 140 5.0 14.0 0.00 0.00 0.00 78 1014.1
20260506174548 67 0 0.0 6.0 0.00 0.00 0.00 79 1014.3